This is the latest recevied weather packets stored in our database for station/object NQ9F. If no packets are shown the sender has not sent any weather packets the latest 10 day(s).
| Time | Temp. | Humidity | Pressure | Rain* | Wind** | Luminosity | Snow |
|---|---|---|---|---|---|---|---|
| 1788136059 | 96° F | 31% | 759.7 mmHg | 0 in | - | 41 W/m² | - |
| 1788135758 | 96° F | 31% | 759.7 mmHg | 0 in | - | 52 W/m² | - |
| 1788135455 | 96° F | 31% | 759.8 mmHg | 0 in | - | 58 W/m² | - |
| 1788135149 | 97° F | 30% | 759.7 mmHg | 0 in | - | 70 W/m² | - |
| 1788134846 | 97° F | 30% | 759.9 mmHg | 0 in | - | 87 W/m² | - |
| 1788134541 | 97° F | 30% | 759.9 mmHg | 0 in | - | 103 W/m² | - |
| 1788134240 | 97° F | 30% | 759.7 mmHg | 0 in | - | 122 W/m² | - |
| 1788133935 | 97° F | 30% | 759.8 mmHg | 0 in | - | 136 W/m² | - |
| 1788133630 | 98° F | 30% | 759.7 mmHg | 0 in | - | 153 W/m² | - |
| 1788133326 | 98° F | 30% | 759.7 mmHg | 0 in | - | 174 W/m² | - |
| 1788133021 | 98° F | 30% | 759.9 mmHg | 0 in | - | 193 W/m² | - |
| 1788132717 | 98° F | 30% | 759.7 mmHg | 0 in | - | 212 W/m² | - |
| 1788132412 | 98° F | 30% | 759.7 mmHg | 0 in | - | 227 W/m² | - |
| 1788132108 | 98° F | 29% | 759.9 mmHg | 0 in | - | 236 W/m² | - |
| 1788131805 | 98° F | 29% | 759.7 mmHg | 0 in | - | 248 W/m² | - |
| 1788131504 | 98° F | 30% | 759.8 mmHg | 0 in | - | 265 W/m² | - |
| 1788131199 | 98° F | 30% | 759.8 mmHg | 0 in | - | 291 W/m² | - |
| 1788130899 | 99° F | 30% | 759.8 mmHg | 0 in | - | 318 W/m² | - |
| 1788130594 | 99° F | 29% | 759.7 mmHg | 0 in | - | 338 W/m² | - |
| 1788130289 | 98° F | 30% | 759.8 mmHg | 0 in | - | 357 W/m² | - |
| 1788129987 | 99° F | 29% | 760 mmHg | 0 in | - | 380 W/m² | - |
| 1788129678 | 99° F | 29% | 759.9 mmHg | 0 in | - | 404 W/m² | - |
| 1788129375 | 99° F | 29% | 759.8 mmHg | 0 in | - | 425 W/m² | - |
| 1788129074 | 99° F | 28% | 759.9 mmHg | 0 in | - | 449 W/m² | - |
| 1788128769 | 98° F | 28% | 760 mmHg | 0 in | - | 476 W/m² | - |
* Rain latest hour (hover to see other rain measurements)
** Current wind speed in m/s (hover to see current wind gust speed)